Weather History for Mae Hong Son, Thailand

Change the Weather History Date:

Tuesday, May 13, 2014

  Actual Average Record
Temperature  
Mean Temperature 93 °F -  
Max Temperature 104 °F 93 °F - ()
Min Temperature 82 °F 75 °F - ()
Cooling Degree Days 28    
Growing Degree Days 43 (Base 50)    
Moisture  
Dew Point 68 °F    
Average Humidity 42    
Maximum Humidity 66    
Minimum Humidity 26    
Precipitation  
Precipitation 0.00 in 0.24 in - ()
Sea Level Pressure  
Sea Level Pressure 29.72 in    
Wind  
Wind Speed 3 mph ()    
Max Wind Speed 8 mph    
Max Gust Speed -    
Visibility 6.7 miles    
Events      
T = Trace of Precipitation, MM = Missing Value Source: Averaged Metar Reports

Daily Weather History Graph

Daily Weather History Graph

Search for Another Location

Airport:

Trip Planner

Search our weather history database for the weather conditions in past years. The results will help you decide how hot, cold, wet, or windy it might be!

Date:

Astronomy

May. 13, 2014 Rise Set
Actual Time 5:54 AM ICT 6:55 PM ICT
Civil Twilight 5:30 AM ICT 7:18 PM ICT
Nautical Twilight 5:03 AM ICT 7:46 PM ICT
Astronomical Twilight 4:34 AM ICT 8:14 PM ICT
Moon 5:35 PM ICT (5/13) 4:34 AM ICT (5/13)
Length of Visible Light 13h 47m
Length of Day
13h 00m
Waxing Gibbous, 97% of the Moon is Illuminated
May 13
Waxing Gibbous
May 15
Full
May 21
Last Quarter
May 29
New
Jun 6
First Quarter

Hourly Weather History & Observations

Time (ICT) Temp. Heat Index Dew Point Humidity Pressure Visibility Wind Dir Wind Speed Gust Speed Precip Events Conditions
1:00 AM 85 °F - 72 °F 56% 29.75 in 6 mi Calm Calm - -   Scattered Clouds
4:00 AM 84 °F - 72 °F 60% 29.73 in 6 mi Calm Calm - -   Scattered Clouds
7:00 AM 83 °F - 73 °F 66% 29.77 in 6 mi South 2.3 mph - -   Partly Cloudy
7:00 AM 84.2 °F 88.4 °F 69.8 °F 62% 29.80 in 6.2 mi Variable 4.6 mph - N/A   Mostly Cloudy
8:00 AM 86.0 °F 90.4 °F 69.8 °F 58% 29.83 in 6.2 mi SW 4.6 mph - N/A   Scattered Clouds
9:00 AM 87.8 °F 92.6 °F 69.8 °F 55% 29.83 in 6.2 mi South 4.6 mph - N/A   Scattered Clouds
10:00 AM 91 °F - 74 °F 49% 29.79 in 7 mi Calm Calm - -   Scattered Clouds
10:00 AM 91.4 °F 96.8 °F 69.8 °F 49% 29.83 in 6.2 mi SW 3.5 mph - N/A   Partly Cloudy
11:00 AM 93.2 °F 96.2 °F 66.2 °F 41% 29.83 in 6.2 mi NE 2.3 mph - N/A   Scattered Clouds
12:00 PM 96.8 °F 101.8 °F 68.0 °F 39% 29.80 in 6.2 mi NW 4.6 mph - N/A   Scattered Clouds
1:00 PM 98 °F - 70 °F 31% 29.71 in 9 mi Calm Calm - -   Partly Cloudy
1:00 PM 98.6 °F 102.8 °F 66.2 °F 35% 29.74 in 6.2 mi WSW 6.9 mph - N/A   Scattered Clouds
2:00 PM 98.6 °F 101.0 °F 64.4 °F 32% 29.71 in 6.2 mi WSW 6.9 mph - N/A   Scattered Clouds
3:00 PM 102.2 °F 105.5 °F 64.4 °F 29% 29.65 in 6.2 mi West 8.1 mph - N/A   Scattered Clouds
4:00 PM 103 °F - 71 °F 26% 29.56 in 9 mi Calm Calm - -   Scattered Clouds
4:00 PM 102.2 °F 105.5 °F 64.4 °F 29% 29.62 in 6.2 mi Variable 5.8 mph - N/A   Scattered Clouds
5:00 PM 100.4 °F 102.4 °F 62.6 °F 29% 29.59 in 6.2 mi SW 4.6 mph - N/A   Scattered Clouds
6:00 PM 100.4 °F 102.4 °F 62.6 °F 29% 29.59 in 6.2 mi Variable 4.6 mph - N/A   Scattered Clouds
7:00 PM 96 °F - 68 °F 30% 29.58 in 9 mi South 5.8 mph - -   Scattered Clouds
10:00 PM 88 °F - 69 °F 43% 29.68 in 7 mi South 6.9 mph - -   Scattered Clouds